TimeCST,TemperatureF,Dew PointF,Humidity,Sea Level PressureIn,VisibilityMPH,Wind Direction,Wind SpeedMPH,Gust SpeedMPH,PrecipitationIn,Events,Conditions,WindDirDegrees,DateUTC
12:11 AM,19.4,15.8,86,29.42,3.0,SSW,12.7,20.7,0.01,Snow,Light Snow,200,2013-01-16 06:11:00
12:23 AM,19.4,15.8,86,29.42,2.0,SSW,13.8,20.7,0.02,Snow,Light Snow,210,2013-01-16 06:23:00
12:30 AM,19.4,15.8,86,29.42,1.5,SSW,10.4,20.7,0.02,Snow,Light Snow,210,2013-01-16 06:30:00
12:40 AM,19.4,15.8,86,29.42,3.0,SW,13.8,19.6,0.02,Snow,Light Snow,220,2013-01-16 06:40:00
12:52 AM,19.4,15.8,86,29.42,4.0,SW,13.8,24.2,0.03,Rain,Light Freezing Rain,220,2013-01-16 06:52:00
12:55 AM,19.9,16.0,85,29.49,4.0,SW,16.1,24.2,0.03,Rain,Light Freezing Rain,220,2013-01-16 06:55:00
1:40 AM,19.4,17.6,93,29.41,4.0,SW,11.5,-,0.00,Rain,Light Freezing Rain,220,2013-01-16 07:40:00
1:55 AM,19.9,18.0,92,29.47,3.0,SSW,10.4,-,0.00,Rain,Light Freezing Rain,210,2013-01-16 07:55:00
2:55 AM,21.9,19.9,92,29.49,6.0,WSW,10.4,-,0.01,,Overcast,250,2013-01-16 08:55:00
3:55 AM,24.1,19.9,84,29.50,10.0,WNW,13.8,21.9,N/A,,Overcast,300,2013-01-16 09:55:00
4:43 AM,23.0,17.6,80,29.47,10.0,WNW,18.4,26.5,N/A,,Overcast,290,2013-01-16 10:43:00
4:55 AM,21.9,18.0,85,29.54,10.0,NW,19.6,25.3,N/A,,Overcast,310,2013-01-16 10:55:00
5:55 AM,19.9,16.0,85,29.58,6.0,NW,17.3,23.0,0.00,Snow,Light Snow,310,2013-01-16 11:55:00
6:44 AM,17.6,12.2,79,29.56,7.0,NW,18.4,-,0.00,Snow,Light Snow,320,2013-01-16 12:44:00
6:55 AM,17.1,12.0,81,29.64,9.0,NW,15.0,-,0.00,,Overcast,320,2013-01-16 12:55:00
7:55 AM,14.0,9.0,80,29.69,10.0,NW,16.1,20.7,N/A,,Mostly Cloudy,320,2013-01-16 13:55:00
8:55 AM,12.0,5.0,73,29.74,10.0,NW,17.3,-,N/A,,Scattered Clouds,320,2013-01-16 14:55:00
9:55 AM,10.9,1.9,67,29.79,10.0,NW,17.3,25.3,N/A,,Clear,310,2013-01-16 15:55:00
10:55 AM,10.9,1.9,67,29.83,10.0,NNW,12.7,-,N/A,,Clear,330,2013-01-16 16:55:00
11:20 AM,10.4,1.4,67,29.76,10.0,WNW,17.3,-,N/A,,Mostly Cloudy,300,2013-01-16 17:20:00
11:30 AM,10.4,-0.4,62,29.77,10.0,WNW,15.0,-,N/A,,Scattered Clouds,300,2013-01-16 17:30:00
11:55 AM,10.0,-0.0,64,29.86,10.0,NW,15.0,-,N/A,,Partly Cloudy,320,2013-01-16 17:55:00
12:55 PM,9.0,-2.9,59,29.90,10.0,NW,12.7,-,N/A,,Mostly Cloudy,310,2013-01-16 18:55:00
1:55 PM,8.1,-5.1,55,29.95,10.0,NW,16.1,23.0,N/A,,Overcast,310,2013-01-16 19:55:00
2:55 PM,6.1,-9.9,48,30.00,10.0,NW,15.0,-,N/A,,Clear,320,2013-01-16 20:55:00
3:55 PM,1.9,-13.0,50,30.06,10.0,NW,16.1,25.3,N/A,,Clear,310,2013-01-16 21:55:00
4:55 PM,-0.0,-13.0,54,30.10,10.0,NW,11.5,-,N/A,,Clear,320,2013-01-16 22:55:00
5:55 PM,-2.9,-13.0,62,30.16,10.0,NNW,10.4,-,N/A,,Clear,330,2013-01-16 23:55:00
6:55 PM,-6.0,-14.1,68,30.20,10.0,NW,6.9,-,N/A,,Clear,320,2013-01-17 00:55:00
7:55 PM,-7.1,-16.1,65,30.23,10.0,NW,9.2,-,N/A,,Clear,320,2013-01-17 01:55:00
8:55 PM,-8.0,-17.0,65,30.26,10.0,NNW,9.2,-,N/A,,Partly Cloudy,330,2013-01-17 02:55:00
9:55 PM,-9.0,-17.0,68,30.27,10.0,WNW,3.5,-,N/A,,Clear,300,2013-01-17 03:55:00
10:55 PM,-11.0,-18.9,68,30.29,10.0,WNW,6.9,-,N/A,,Mostly Cloudy,300,2013-01-17 04:55:00
11:55 PM,-11.9,-18.0,74,30.31,10.0,West,6.9,-,N/A,,Partly Cloudy,280,2013-01-17 05:55:00